Terminal Aerodrome Forecast
Issued by NWS New Orleans/Baton Rouge, LA

Home | Current Version | Previous Version | Text Only | Print | Product List | Glossary On
Versions: 1 2 3 4 5 6 7 8 9 10 11 12
000
FTUS44 KLIX 201130
TAFBTR
TAF
KBTR 201130Z 2012/2112 08006KT P6SM FEW100 BKN250
     FM201800 11008KT P6SM BKN035 BKN090
     FM210900 11006KT 5SM BR SCT015 BKN020=

USA.gov is the U.S. government's official web portal to all federal, state and local government web resources and services.